Date String (YYYY-MM-DD hh:mm:ss) UTC,Instrument flags,Ambient pressure (hPa),Sample flow (lpm),Bypass flow (lpm),Sample temperature (°C),Ambient temperature (°C),ASC tube jacket temperature (°C),LED temperature (°C),Box temperature (°C),Sample RH (%),Span deviation,Mass concentration (μg/m³),Mass concentration (μg/m³),Mass concentration (μg/m³)
DateTimeUTC,F1_M11,P_M11,Q1_M11,Q2_M11,T1_M11,T2_M11,T3_M11,T4_M11,T5_M11,U1_M11,ZSPAN_M11,X0_M11,X2_M11,X1_M11
2021-10-19 05:00:00,,0818.0,5.00,0.00,29.9,28.8,00.0,39.0,31.6,10.3,0000.0,0011.08,0003.62,0002.16
2021-10-19 05:01:00,,0818.0,5.00,0.00,29.9,28.8,00.0,39.0,31.6,10.3,0000.0,0011.30,0003.63,0002.15
2021-10-19 05:02:00,,0818.1,5.01,0.00,29.9,28.9,00.0,39.0,31.7,10.3,0000.0,0011.79,0003.64,0002.16
2021-10-19 05:03:00,,0818.1,4.99,0.00,29.9,28.9,00.0,39.0,31.7,10.3,0000.0,0012.39,0003.64,0002.16
2021-10-19 05:04:00,,0818.1,5.00,0.00,29.9,28.9,00.0,39.0,31.6,10.3,0000.0,0012.57,0003.66,0002.16
2021-10-19 05:05:00,,0818.2,5.00,0.00,29.9,28.9,00.0,39.0,31.7,10.4,0000.0,0011.70,0003.63,0002.17
2021-10-19 05:06:00,,0818.2,5.01,0.00,30.0,28.9,00.0,39.0,31.7,10.4,0000.0,0010.97,0003.58,0002.16
2021-10-19 05:07:00,,0818.2,5.00,0.00,30.0,28.9,00.0,39.0,31.7,10.4,0000.0,0010.92,0003.58,0002.16
2021-10-19 05:08:00,,0818.2,5.00,0.00,30.0,28.9,00.0,39.1,31.7,10.3,0000.0,0010.72,0003.55,0002.16
2021-10-19 05:09:00,,0818.2,4.99,0.00,30.0,29.0,00.0,39.1,31.7,10.3,0000.0,0011.15,0003.56,0002.17
2021-10-19 05:10:00,,0818.1,4.99,0.00,30.0,28.9,00.0,39.1,31.7,10.4,0000.0,0010.82,0003.54,0002.18
2021-10-19 05:11:00,,0818.0,5.01,0.00,30.0,28.9,00.0,39.1,31.7,10.4,0000.0,0010.59,0003.54,0002.18
2021-10-19 05:12:00,,0818.0,5.00,0.00,30.0,28.9,00.0,39.1,31.7,10.3,0000.0,0011.00,0003.55,0002.18
2021-10-19 05:13:00,,0818.0,5.00,0.00,30.0,29.0,00.0,39.1,31.7,10.3,0000.0,0010.79,0003.55,0002.17
2021-10-19 05:14:00,,0818.0,4.99,0.00,30.0,28.9,00.0,39.1,31.7,10.3,0000.0,0010.26,0003.51,0002.18
2021-10-19 05:15:00,,0818.0,5.00,0.00,30.0,28.9,00.0,39.1,31.7,10.4,0000.0,0010.35,0003.52,0002.18
2021-10-19 05:16:00,,0818.0,5.00,0.00,30.0,28.9,00.0,39.1,31.7,10.4,0000.0,0010.96,0003.57,0002.20
2021-10-19 05:17:00,,0818.0,5.01,0.00,30.0,29.0,00.0,39.1,31.7,10.4,0000.0,0010.95,0003.55,0002.20
2021-10-19 05:18:00,,0817.9,5.00,0.00,30.0,29.0,00.0,39.1,31.7,10.3,0000.0,0011.00,0003.54,0002.19
2021-10-19 05:19:00,,0818.0,4.99,0.00,30.0,29.0,00.0,39.1,31.7,10.3,0000.0,0010.13,0003.54,0002.18
2021-10-19 05:20:00,,0818.1,5.01,0.00,30.0,29.0,00.0,39.1,31.7,10.3,0000.0,0009.56,0003.48,0002.16
2021-10-19 05:21:00,,0818.2,4.99,0.00,30.0,29.0,00.0,39.1,31.7,10.4,0000.0,0009.66,0003.45,0002.15
2021-10-19 05:22:00,,0818.2,5.00,0.00,30.0,29.0,00.0,39.1,31.7,10.4,0000.0,0009.76,0003.43,0002.14
2021-10-19 05:23:00,,0818.2,5.01,0.00,30.0,28.9,00.0,39.1,31.7,10.3,0000.0,0009.91,0003.44,0002.15
2021-10-19 05:24:00,,0818.2,5.00,0.00,30.0,29.0,00.0,39.1,31.7,10.4,0000.0,0010.01,0003.45,0002.16
2021-10-19 05:25:00,,0818.1,5.00,0.00,30.0,29.0,00.0,39.1,31.7,10.3,0000.0,0009.85,0003.47,0002.15
2021-10-19 05:26:00,,0818.1,5.00,0.00,30.0,29.0,00.0,39.1,31.7,10.4,0000.0,0009.72,0003.44,0002.15
2021-10-19 05:27:00,,0818.1,5.01,0.00,30.0,28.9,00.0,39.1,31.7,10.4,0000.0,0009.29,0003.38,0002.13
2021-10-19 05:28:00,,0818.1,5.00,0.00,30.0,28.9,00.0,39.1,31.7,10.3,0000.0,0009.55,0003.45,0002.14
2021-10-19 05:29:00,,0818.1,5.00,0.00,30.0,28.9,00.0,39.1,31.7,10.3,0000.0,0010.10,0003.50,0002.16
2021-10-19 05:30:00,,0818.0,5.01,0.00,30.0,29.0,00.0,39.1,31.8,10.3,0000.0,0010.38,0003.50,0002.18
2021-10-19 05:31:00,,0818.0,5.00,0.00,30.0,29.0,00.0,39.2,31.7,10.3,0000.0,0011.27,0003.56,0002.20
2021-10-19 05:32:00,,0818.1,4.99,0.00,30.0,29.0,00.0,39.2,31.7,10.3,0000.0,0011.97,0003.63,0002.23
2021-10-19 05:33:00,,0818.0,5.00,0.00,30.0,29.0,00.0,39.1,31.7,10.3,0000.0,0012.34,0003.70,0002.26
2021-10-19 05:34:00,,0818.1,4.99,0.00,30.0,29.0,00.0,39.2,31.7,10.3,0000.0,0011.94,0003.75,0002.27
2021-10-19 05:35:00,,0818.0,4.99,0.00,30.0,29.0,00.0,39.2,31.7,10.3,0000.0,0011.69,0003.76,0002.28
2021-10-19 05:36:00,,0818.0,5.01,0.00,30.0,29.0,00.0,39.1,31.7,10.3,0000.0,0011.60,0003.78,0002.29
2021-10-19 05:37:00,,0818.0,4.99,0.00,30.0,28.9,00.0,39.1,31.7,10.3,0000.0,0011.69,0003.81,0002.30
2021-10-19 05:38:00,,0818.0,5.00,0.00,30.0,29.0,00.0,39.1,31.7,10.3,0000.0,0011.56,0003.83,0002.30
2021-10-19 05:39:00,,0818.0,5.00,0.00,30.0,29.0,00.0,39.2,31.8,10.3,0000.0,0012.35,0003.79,0002.33
2021-10-19 05:40:00,,0818.0,5.01,0.00,30.0,29.0,00.0,39.2,31.8,10.3,0000.0,0011.76,0003.78,0002.34
2021-10-19 05:41:00,,0818.0,4.99,0.00,30.0,29.0,00.0,39.2,31.7,10.3,0000.0,0011.75,0003.79,0002.35
2021-10-19 05:42:00,,0818.0,5.01,0.00,30.0,29.0,00.0,39.2,31.8,10.3,0000.0,0012.14,0003.79,0002.37
2021-10-19 05:43:00,,0818.0,4.99,0.00,30.0,29.0,00.0,39.2,31.8,10.3,0000.0,0012.23,0003.75,0002.37
2021-10-19 05:44:00,,0817.9,5.00,0.00,30.0,29.0,00.0,39.2,31.8,10.3,0000.0,0012.93,0003.73,0002.37
2021-10-19 05:45:00,,0817.9,5.01,0.00,30.0,29.0,00.0,39.2,31.7,10.3,0000.0,0012.81,0003.68,0002.38
2021-10-19 05:46:00,,0817.9,5.00,0.00,30.0,29.0,00.0,39.2,31.8,10.3,0000.0,0012.99,0003.67,0002.39
2021-10-19 05:47:00,,0817.8,5.00,0.00,30.0,29.0,00.0,39.2,31.8,10.3,0000.0,0013.68,0003.67,0002.40
2021-10-19 05:48:00,,0817.9,5.01,0.00,30.0,29.0,00.0,39.2,31.7,10.3,0000.0,0013.69,0003.69,0002.41
2021-10-19 05:49:00,,0817.9,4.98,0.00,30.0,29.0,00.0,39.2,31.7,10.3,0000.0,0013.74,0003.71,0002.43
2021-10-19 05:50:00,,0817.7,5.00,0.00,30.0,29.0,00.0,39.2,31.7,10.3,0000.0,0014.03,0003.74,0002.42
2021-10-19 05:51:00,,0817.8,5.00,0.00,30.0,29.0,00.0,39.2,31.8,10.3,0000.0,0014.03,0003.72,0002.40
2021-10-19 05:52:00,,0817.7,5.02,0.00,30.0,29.0,00.0,39.2,31.8,10.3,0000.0,0014.09,0003.77,0002.40
2021-10-19 05:53:00,,0817.7,4.98,0.00,30.0,29.0,00.0,39.2,31.7,10.3,0000.0,0013.08,0003.77,0002.39
2021-10-19 05:54:00,,0817.8,5.00,0.00,30.0,29.0,00.0,39.2,31.8,10.3,0000.0,0012.43,0003.79,0002.39
2021-10-19 05:55:00,,0817.8,4.98,0.00,30.0,29.0,00.0,39.2,31.8,10.3,0000.0,0012.11,0003.81,0002.38
2021-10-19 05:56:00,,0817.7,5.01,0.00,30.0,29.0,00.0,39.2,31.7,10.3,0000.0,0012.20,0003.81,0002.36
2021-10-19 05:57:00,,0817.8,4.99,0.00,30.0,29.0,00.0,39.2,31.7,10.3,0000.0,0012.62,0003.83,0002.35
2021-10-19 05:58:00,,0817.8,4.99,0.00,30.0,29.1,00.0,39.2,31.8,10.3,0000.0,0012.15,0003.83,0002.35
2021-10-19 05:59:00,,0817.9,5.01,0.00,30.0,29.1,00.0,39.2,31.8,10.3,0000.0,0012.12,0003.85,0002.35
